Time,TemperatureF,DewpointF,PressureIn,WindDirection,WindDirectionDegrees,WindSpeedMPH,WindSpeedGustMPH,Humidity,HourlyPrecipIn,Conditions,Clouds,dailyrainin,SolarRadiationWatts/m^2,SoftwareType,DateUTC
2013-06-06 00:02:00,30.0,28.0,-100.00,NNE,16,1.0,3.0,93,0.00,,,0.00,0.000000,,2013-06-06 06:02:00,
2013-06-06 00:12:00,30.0,28.0,-100.00,NNE,16,1.0,3.0,93,0.00,,,0.00,0.000000,,2013-06-06 06:12:00,
2013-06-06 00:22:00,30.0,28.0,-100.00,NNE,16,1.0,3.0,93,0.00,,,0.00,0.000000,,2013-06-06 06:22:00,
2013-06-06 00:32:00,30.0,28.0,-100.00,NNE,16,1.0,3.0,93,0.00,,,0.00,0.000000,,2013-06-06 06:32:00,
2013-06-06 00:52:00,29.0,27.0,-100.00,NNE,18,0.0,3.0,94,0.00,,,0.00,0.000000,,2013-06-06 06:52:00,
2013-06-06 01:02:00,29.0,27.0,-100.00,NNE,18,0.0,3.0,94,0.00,,,0.00,0.000000,,2013-06-06 07:02:00,
2013-06-06 01:12:00,29.0,27.0,-100.00,NNE,18,0.0,3.0,94,0.00,,,0.00,0.000000,,2013-06-06 07:12:00,
2013-06-06 01:22:00,29.0,27.0,-100.00,NNE,18,0.0,3.0,94,0.00,,,0.00,0.000000,,2013-06-06 07:22:00,
2013-06-06 01:32:00,29.0,27.0,-100.00,NNE,18,0.0,3.0,94,0.00,,,0.00,0.000000,,2013-06-06 07:32:00,
2013-06-06 02:02:00,28.0,27.0,-100.00,NNE,15,1.0,3.0,94,0.00,,,0.00,0.000000,,2013-06-06 08:02:00,
2013-06-06 02:12:00,28.0,27.0,-100.00,NNE,15,1.0,3.0,94,0.00,,,0.00,0.000000,,2013-06-06 08:12:00,
2013-06-06 02:22:00,28.0,27.0,-100.00,NNE,15,1.0,3.0,94,0.00,,,0.00,0.000000,,2013-06-06 08:22:00,
2013-06-06 02:32:00,28.0,27.0,-100.00,NNE,15,1.0,3.0,94,0.00,,,0.00,0.000000,,2013-06-06 08:32:00,
2013-06-06 02:52:00,27.0,25.0,-100.00,NNE,15,2.0,3.0,93,0.00,,,-99.99,0.000000,,2013-06-06 08:52:00,
2013-06-06 03:02:00,27.0,25.0,-100.00,NNE,15,2.0,3.0,93,0.00,,,-99.99,0.000000,,2013-06-06 09:02:00,
2013-06-06 03:12:00,27.0,25.0,-100.00,NNE,15,2.0,3.0,93,0.00,,,-99.99,0.000000,,2013-06-06 09:12:00,
2013-06-06 03:22:00,27.0,25.0,-100.00,NNE,15,2.0,3.0,93,0.00,,,-99.99,0.000000,,2013-06-06 09:22:00,
2013-06-06 03:33:00,27.0,25.0,-100.00,NNE,15,2.0,3.0,93,0.00,,,-99.99,0.000000,,2013-06-06 09:33:00,
2013-06-06 03:53:00,27.0,25.0,-100.00,NNE,25,1.0,3.0,93,0.00,,,0.00,0.000000,,2013-06-06 09:53:00,
2013-06-06 04:03:00,27.0,25.0,-100.00,NNE,25,1.0,3.0,93,0.00,,,0.00,0.000000,,2013-06-06 10:03:00,
2013-06-06 04:12:00,27.0,25.0,-100.00,NNE,25,1.0,3.0,93,0.00,,,0.00,0.000000,,2013-06-06 10:12:00,
2013-06-06 04:23:00,27.0,25.0,-100.00,NNE,25,1.0,3.0,93,0.00,,,0.00,0.000000,,2013-06-06 10:23:00,
2013-06-06 04:33:00,27.0,25.0,-100.00,NNE,25,1.0,3.0,93,0.00,,,0.00,0.000000,,2013-06-06 10:33:00,
2013-06-06 04:53:00,26.0,24.0,-100.00,NNE,21,2.0,3.0,93,0.00,,,0.00,0.000000,,2013-06-06 10:53:00,
2013-06-06 05:02:00,26.0,24.0,-100.00,NNE,21,2.0,3.0,93,0.00,,,0.00,0.000000,,2013-06-06 11:02:00,
2013-06-06 05:12:00,26.0,24.0,-100.00,NNE,21,2.0,3.0,93,0.00,,,0.00,0.000000,,2013-06-06 11:12:00,
2013-06-06 05:22:00,26.0,24.0,-100.00,NNE,21,2.0,3.0,93,0.00,,,0.00,0.000000,,2013-06-06 11:22:00,
2013-06-06 05:32:00,26.0,24.0,-100.00,NNE,21,2.0,3.0,93,0.00,,,0.00,0.000000,,2013-06-06 11:32:00,
2013-06-06 05:52:00,27.0,25.0,-100.00,NNE,25,2.0,4.0,93,0.00,,,0.00,5.000000,,2013-06-06 11:52:00,
2013-06-06 06:03:00,27.0,25.0,-100.00,NNE,25,2.0,4.0,93,0.00,,,0.00,5.000000,,2013-06-06 12:03:00,
2013-06-06 06:12:00,27.0,25.0,-100.00,NNE,25,2.0,4.0,93,0.00,,,0.00,5.000000,,2013-06-06 12:12:00,
2013-06-06 06:23:00,27.0,25.0,-100.00,NNE,25,2.0,4.0,93,0.00,,,0.00,5.000000,,2013-06-06 12:23:00,
2013-06-06 06:33:00,27.0,25.0,-100.00,NNE,25,2.0,4.0,93,0.00,,,0.00,5.000000,,2013-06-06 12:33:00,
2013-06-06 06:53:00,30.0,28.0,-100.00,NNE,32,1.0,4.0,94,0.00,,,0.00,30.000000,,2013-06-06 12:53:00,
2013-06-06 07:03:00,30.0,28.0,-100.00,NNE,32,1.0,4.0,94,0.00,,,0.00,30.000000,,2013-06-06 13:03:00,
2013-06-06 07:13:00,30.0,28.0,-100.00,NNE,32,1.0,4.0,94,0.00,,,0.00,30.000000,,2013-06-06 13:13:00,
2013-06-06 07:22:00,30.0,28.0,-100.00,NNE,32,1.0,4.0,94,0.00,,,0.00,30.000000,,2013-06-06 13:22:00,
2013-06-06 07:32:00,30.0,28.0,-100.00,NNE,32,1.0,4.0,94,0.00,,,0.00,30.000000,,2013-06-06 13:32:00,
2013-06-06 07:53:00,42.0,40.0,-100.00,SSE,159,3.0,5.0,92,0.00,,,0.00,33.000000,,2013-06-06 13:53:00,
2013-06-06 08:03:00,42.0,40.0,-100.00,SSE,159,3.0,5.0,92,0.00,,,0.00,33.000000,,2013-06-06 14:03:00,
2013-06-06 08:13:00,42.0,40.0,-100.00,SSE,159,3.0,5.0,92,0.00,,,0.00,33.000000,,2013-06-06 14:13:00,
2013-06-06 08:22:00,42.0,40.0,-100.00,SSE,159,3.0,5.0,92,0.00,,,0.00,33.000000,,2013-06-06 14:22:00,
2013-06-06 08:33:00,42.0,40.0,-100.00,SSE,159,3.0,5.0,92,0.00,,,0.00,33.000000,,2013-06-06 14:33:00,
2013-06-06 09:03:00,50.0,38.0,-100.00,West,266,3.0,7.0,64,0.00,,,0.00,59.000000,,2013-06-06 15:03:00,
2013-06-06 09:13:00,50.0,38.0,-100.00,West,266,3.0,7.0,64,0.00,,,0.00,59.000000,,2013-06-06 15:13:00,
2013-06-06 09:23:00,50.0,38.0,-100.00,West,266,3.0,7.0,64,0.00,,,0.00,59.000000,,2013-06-06 15:23:00,
2013-06-06 09:33:00,50.0,38.0,-100.00,West,266,3.0,7.0,64,0.00,,,0.00,59.000000,,2013-06-06 15:33:00,
2013-06-06 10:03:00,55.0,36.0,-100.00,West,272,4.0,9.0,48,0.00,,,0.00,643.000000,,2013-06-06 16:03:00,
2013-06-06 10:12:00,55.0,36.0,-100.00,West,272,4.0,9.0,48,0.00,,,0.00,643.000000,,2013-06-06 16:12:00,
2013-06-06 10:23:00,55.0,36.0,-100.00,West,272,4.0,9.0,48,0.00,,,0.00,643.000000,,2013-06-06 16:23:00,
2013-06-06 10:33:00,55.0,36.0,-100.00,West,272,4.0,9.0,48,0.00,,,0.00,643.000000,,2013-06-06 16:33:00,
2013-06-06 10:53:00,58.0,33.0,-100.00,NW,313,4.0,12.0,39,0.00,,,0.00,854.000000,,2013-06-06 16:53:00,
2013-06-06 11:03:00,58.0,33.0,-100.00,NW,313,4.0,12.0,39,0.00,,,0.00,854.000000,,2013-06-06 17:03:00,
2013-06-06 11:13:00,58.0,33.0,-100.00,NW,313,4.0,12.0,39,0.00,,,0.00,854.000000,,2013-06-06 17:13:00,
2013-06-06 11:23:00,58.0,33.0,-100.00,NW,313,4.0,12.0,39,0.00,,,0.00,854.000000,,2013-06-06 17:23:00,
2013-06-06 11:33:00,58.0,33.0,-100.00,NW,313,4.0,12.0,39,0.00,,,0.00,854.000000,,2013-06-06 17:33:00,
2013-06-06 12:03:00,60.0,32.0,-100.00,NW,314,5.0,11.0,35,0.00,,,0.00,1004.000000,,2013-06-06 18:03:00,
2013-06-06 12:13:00,60.0,32.0,-100.00,NW,314,5.0,11.0,35,0.00,,,0.00,1004.000000,,2013-06-06 18:13:00,
2013-06-06 12:23:00,60.0,32.0,-100.00,NW,314,5.0,11.0,35,0.00,,,0.00,1004.000000,,2013-06-06 18:23:00,
2013-06-06 12:33:00,60.0,32.0,-100.00,NW,314,5.0,11.0,35,0.00,,,0.00,1004.000000,,2013-06-06 18:33:00,
2013-06-06 13:03:00,62.0,33.0,-100.00,NW,310,6.0,11.0,34,0.00,,,0.00,939.000000,,2013-06-06 19:03:00,
2013-06-06 13:13:00,62.0,33.0,-100.00,NW,310,6.0,11.0,34,0.00,,,0.00,939.000000,,2013-06-06 19:13:00,
2013-06-06 13:23:00,62.0,33.0,-100.00,NW,310,6.0,11.0,34,0.00,,,0.00,939.000000,,2013-06-06 19:23:00,
2013-06-06 13:33:00,62.0,33.0,-100.00,NW,310,6.0,11.0,34,0.00,,,0.00,939.000000,,2013-06-06 19:33:00,
2013-06-06 13:53:00,64.0,30.0,-100.00,NW,308,6.0,13.0,28,0.00,,,0.00,1073.000000,,2013-06-06 19:53:00,
2013-06-06 14:03:00,64.0,30.0,-100.00,NW,308,6.0,13.0,28,0.00,,,0.00,1073.000000,,2013-06-06 20:03:00,
2013-06-06 14:13:00,64.0,30.0,-100.00,NW,308,6.0,13.0,28,0.00,,,0.00,1073.000000,,2013-06-06 20:13:00,
2013-06-06 14:23:00,64.0,30.0,-100.00,NW,308,6.0,13.0,28,0.00,,,0.00,1073.000000,,2013-06-06 20:23:00,
2013-06-06 14:33:00,64.0,30.0,-100.00,NW,308,6.0,13.0,28,0.00,,,0.00,1073.000000,,2013-06-06 20:33:00,
2013-06-06 14:53:00,63.0,34.0,-100.00,NNE,33,4.0,14.0,34,0.00,,,0.00,822.000000,,2013-06-06 20:53:00,
2013-06-06 15:03:00,63.0,34.0,-100.00,NNE,33,4.0,14.0,34,0.00,,,0.00,822.000000,,2013-06-06 21:03:00,
2013-06-06 15:13:00,63.0,34.0,-100.00,NNE,33,4.0,14.0,34,0.00,,,0.00,822.000000,,2013-06-06 21:13:00,
2013-06-06 15:23:00,63.0,34.0,-100.00,NNE,33,4.0,14.0,34,0.00,,,0.00,822.000000,,2013-06-06 21:23:00,
2013-06-06 15:33:00,63.0,34.0,-100.00,NNE,33,4.0,14.0,34,0.00,,,0.00,822.000000,,2013-06-06 21:33:00,
2013-06-06 15:53:00,61.0,35.0,-100.00,North,356,4.0,11.0,37,0.00,,,0.00,629.000000,,2013-06-06 21:53:00,
2013-06-06 16:03:00,61.0,35.0,-100.00,North,356,4.0,11.0,37,0.00,,,0.00,629.000000,,2013-06-06 22:03:00,
2013-06-06 16:13:00,61.0,35.0,-100.00,North,356,4.0,11.0,37,0.00,,,0.00,629.000000,,2013-06-06 22:13:00,
2013-06-06 16:23:00,61.0,35.0,-100.00,North,356,4.0,11.0,37,0.00,,,0.00,629.000000,,2013-06-06 22:23:00,
2013-06-06 16:33:00,61.0,35.0,-100.00,North,356,4.0,11.0,37,0.00,,,0.00,629.000000,,2013-06-06 22:33:00,
2013-06-06 16:53:00,60.0,34.0,-100.00,NNE,13,4.0,12.0,37,0.00,,,0.00,248.000000,,2013-06-06 22:53:00,
2013-06-06 17:02:00,60.0,34.0,-100.00,NNE,13,4.0,12.0,37,0.00,,,0.00,248.000000,,2013-06-06 23:02:00,
2013-06-06 17:13:00,60.0,34.0,-100.00,NNE,13,4.0,12.0,37,0.00,,,0.00,248.000000,,2013-06-06 23:13:00,
2013-06-06 17:22:00,60.0,34.0,-100.00,NNE,13,4.0,12.0,37,0.00,,,0.00,248.000000,,2013-06-06 23:22:00,
2013-06-06 17:33:00,60.0,34.0,-100.00,NNE,13,4.0,12.0,37,0.00,,,0.00,248.000000,,2013-06-06 23:33:00,
2013-06-06 17:52:00,60.0,33.0,-100.00,NNW,341,5.0,15.0,36,0.00,,,0.00,367.000000,,2013-06-06 23:52:00,
2013-06-06 18:02:00,60.0,33.0,-100.00,NNW,341,5.0,15.0,36,0.00,,,0.00,367.000000,,2013-06-07 00:02:00,
2013-06-06 18:12:00,60.0,33.0,-100.00,NNW,341,5.0,15.0,36,0.00,,,0.00,367.000000,,2013-06-07 00:12:00,
2013-06-06 18:22:00,60.0,33.0,-100.00,NNW,341,5.0,15.0,36,0.00,,,0.00,367.000000,,2013-06-07 00:22:00,
2013-06-06 18:32:00,60.0,33.0,-100.00,NNW,341,5.0,15.0,36,0.00,,,0.00,367.000000,,2013-06-07 00:32:00,
2013-06-06 18:52:00,59.0,35.0,-100.00,NNW,345,4.0,14.0,41,0.00,,,-99.99,136.000000,,2013-06-07 00:52:00,
2013-06-06 19:02:00,59.0,35.0,-100.00,NNW,345,4.0,14.0,41,0.00,,,-99.99,136.000000,,2013-06-07 01:02:00,
2013-06-06 19:12:00,59.0,35.0,-100.00,NNW,345,4.0,14.0,41,0.00,,,-99.99,136.000000,,2013-06-07 01:12:00,
2013-06-06 19:22:00,59.0,35.0,-100.00,NNW,345,4.0,14.0,41,0.00,,,-99.99,136.000000,,2013-06-07 01:22:00,
2013-06-06 19:32:00,59.0,35.0,-100.00,NNW,345,4.0,14.0,41,0.00,,,-99.99,136.000000,,2013-06-07 01:32:00,
2013-06-06 19:52:00,55.0,35.0,-100.00,NNW,333,3.0,10.0,46,0.00,,,0.00,117.000000,,2013-06-07 01:52:00,
2013-06-06 20:02:00,55.0,35.0,-100.00,NNW,333,3.0,10.0,46,0.00,,,0.00,117.000000,,2013-06-07 02:02:00,
2013-06-06 20:12:00,55.0,35.0,-100.00,NNW,333,3.0,10.0,46,0.00,,,0.00,117.000000,,2013-06-07 02:12:00,
2013-06-06 20:22:00,55.0,35.0,-100.00,NNW,333,3.0,10.0,46,0.00,,,0.00,117.000000,,2013-06-07 02:22:00,
2013-06-06 20:32:00,55.0,35.0,-100.00,NNW,333,3.0,10.0,46,0.00,,,0.00,117.000000,,2013-06-07 02:32:00,
2013-06-06 20:52:00,51.0,36.0,-100.00,NE,50,1.0,8.0,57,0.00,,,0.00,20.000000,,2013-06-07 02:52:00,
2013-06-06 21:02:00,51.0,36.0,-100.00,NE,50,1.0,8.0,57,0.00,,,0.00,20.000000,,2013-06-07 03:02:00,
2013-06-06 21:12:00,51.0,36.0,-100.00,NE,50,1.0,8.0,57,0.00,,,0.00,20.000000,,2013-06-07 03:12:00,
2013-06-06 21:22:00,51.0,36.0,-100.00,NE,50,1.0,8.0,57,0.00,,,0.00,20.000000,,2013-06-07 03:22:00,
2013-06-06 21:33:00,51.0,36.0,-100.00,NE,50,1.0,8.0,57,0.00,,,0.00,20.000000,,2013-06-07 03:33:00,
2013-06-06 21:53:00,44.0,36.0,-100.00,North,8,1.0,3.0,72,0.00,,,0.00,1.000000,,2013-06-07 03:53:00,
2013-06-06 22:03:00,44.0,36.0,-100.00,North,8,1.0,3.0,72,0.00,,,0.00,1.000000,,2013-06-07 04:03:00,
2013-06-06 22:12:00,44.0,36.0,-100.00,North,8,1.0,3.0,72,0.00,,,0.00,1.000000,,2013-06-07 04:12:00,
2013-06-06 22:23:00,44.0,36.0,-100.00,North,8,1.0,3.0,72,0.00,,,0.00,1.000000,,2013-06-07 04:23:00,
2013-06-06 22:33:00,44.0,36.0,-100.00,North,8,1.0,3.0,72,0.00,,,0.00,1.000000,,2013-06-07 04:33:00,
2013-06-06 22:53:00,40.0,35.0,-100.00,NNE,14,2.0,4.0,83,0.00,,,0.00,0.000000,,2013-06-07 04:53:00,
2013-06-06 23:03:00,40.0,35.0,-100.00,NNE,14,2.0,4.0,83,0.00,,,0.00,0.000000,,2013-06-07 05:03:00,
2013-06-06 23:12:00,40.0,35.0,-100.00,NNE,14,2.0,4.0,83,0.00,,,0.00,0.000000,,2013-06-07 05:12:00,
2013-06-06 23:22:00,40.0,35.0,-100.00,NNE,14,2.0,4.0,83,0.00,,,0.00,0.000000,,2013-06-07 05:22:00,
2013-06-06 23:32:00,40.0,35.0,-100.00,NNE,14,2.0,4.0,83,0.00,,,0.00,0.000000,,2013-06-07 05:32:00,
2013-06-06 23:52:00,36.0,33.0,-100.00,NNE,16,2.0,4.0,89,0.00,,,0.00,0.000000,,2013-06-07 05:52:00,